| time (UTC) | temp F | wind direction | speed knots | gust knots | rain 1hr in | rain 24hr in | rain mn in | humidity % | barometer mb |
| 20260506013921 | 57 | 188 | 9.6 | 11.3 | 0.00 | 0.00 | 0.00 | 83 | 1015.2 |
| 20260506013420 | 57 | 203 | 9.6 | 10.4 | 0.00 | 0.00 | 0.00 | 84 | 1015.1 |
| 20260506012916 | 57 | 180 | 9.6 | 13.0 | 0.00 | 0.00 | 0.00 | 84 | 1015.1 |
| 20260506012412 | 57 | 192 | 10.4 | 11.3 | 0.00 | 0.00 | 0.00 | 84 | 1015.2 |
| 20260506011910 | 57 | 187 | 11.3 | 11.3 | 0.00 | 0.00 | 0.00 | 84 | 1015.1 |
| 20260506011407 | 57 | 189 | 11.3 | 13.0 | 0.00 | 0.00 | 0.00 | 84 | 1015.2 |
| 20260506010903 | 57 | 201 | 9.6 | 12.2 | 0.00 | 0.00 | 0.00 | 84 | 1015.1 |
| 20260506010402 | 57 | 196 | 10.4 | 12.2 | 0.00 | 0.00 | 0.00 | 84 | 1015.2 |
| 20260506005858 | 57 | 211 | 11.3 | 12.2 | 0.00 | 0.00 | 0.00 | 82 | 1015.0 |
| 20260506005356 | 57 | 189 | 11.3 | 13.9 | 0.00 | 0.00 | 0.00 | 83 | 1015.0 |
| 20260506004851 | 57 | 192 | 10.4 | 13.0 | 0.00 | 0.00 | 0.00 | 83 | 1015.0 |
| 20260506004349 | 57 | 196 | 10.4 | 11.3 | 0.00 | 0.00 | 0.00 | 82 | 1015.1 |
| 20260506003845 | 57 | 186 | 12.2 | 13.9 | 0.00 | 0.00 | 0.00 | 82 | 1015.0 |
| 20260506003341 | 57 | 189 | 9.6 | 13.9 | 0.00 | 0.00 | 0.00 | 82 | 1015.0 |
| 20260506002838 | 57 | 188 | 9.6 | 13.9 | 0.00 | 0.00 | 0.00 | 82 | 1014.9 |
| 20260506002334 | 58 | 186 | 12.2 | 12.2 | 0.00 | 0.00 | 0.00 | 83 | 1015.0 |
| 20260506001830 | 58 | 204 | 10.4 | 12.2 | 0.00 | 0.00 | 0.00 | 82 | 1015.0 |
| 20260506001327 | 58 | 183 | 8.7 | 13.0 | 0.00 | 0.00 | 0.00 | 82 | 1014.9 |
| 20260506000824 | 58 | 193 | 11.3 | 13.0 | 0.00 | 0.00 | 0.00 | 81 | 1015.1 |
| 20260506000323 | 58 | 195 | 10.4 | 13.9 | 0.00 | 0.00 | 0.00 | 80 | 1015.1 |
| 20260505235818 | 58 | 195 | 9.6 | 15.6 | 0.00 | 0.00 | 0.00 | 80 | 1015.1 |
| 20260505235316 | 58 | 203 | 11.3 | 14.8 | 0.00 | 0.00 | 0.00 | 80 | 1015.1 |
| 20260505234813 | 58 | 196 | 12.2 | 13.0 | 0.00 | 0.00 | 0.00 | 80 | 1015.1 |
| 20260505234311 | 58 | 192 | 12.2 | 13.9 | 0.00 | 0.00 | 0.00 | 80 | 1014.9 |
| 20260505233807 | 58 | 200 | 11.3 | 15.6 | 0.00 | 0.00 | 0.00 | 80 | 1014.9 |
| 20260505233305 | 58 | 201 | 10.4 | 14.8 | 0.00 | 0.00 | 0.00 | 81 | 1015.2 |
| 20260505232802 | 58 | 214 | 11.3 | 12.2 | 0.00 | 0.00 | 0.00 | 80 | 1015.1 |
| 20260505232300 | 59 | 191 | 9.6 | 13.0 | 0.00 | 0.00 | 0.00 | 78 | 1015.2 |
| 20260505231756 | 59 | 194 | 8.7 | 15.6 | 0.00 | 0.00 | 0.00 | 80 | 1015.0 |
| 20260505231255 | 60 | 189 | 8.7 | 12.2 | 0.00 | 0.00 | 0.00 | 78 | 1015.1 |
| 20260505230752 | 59 | 213 | 10.4 | 13.0 | 0.00 | 0.00 | 0.00 | 79 | 1015.3 |
| 20260505230249 | 60 | 197 | 7.0 | 13.9 | 0.00 | 0.00 | 0.00 | 77 | 1015.2 |
| 20260505225746 | 61 | 181 | 10.4 | 12.2 | 0.00 | 0.00 | 0.00 | 76 | 1015.0 |
| 20260505225243 | 61 | 199 | 11.3 | 11.3 | 0.00 | 0.00 | 0.00 | 77 | 1015.0 |
| 20260505224738 | 60 | 197 | 12.2 | 17.4 | 0.00 | 0.00 | 0.00 | 76 | 1015.0 |
| 20260505224236 | 60 | 195 | 9.6 | 14.8 | 0.00 | 0.00 | 0.00 | 76 | 1015.1 |
| 20260505223733 | 62 | 216 | 12.2 | 13.9 | 0.00 | 0.00 | 0.00 | 74 | 1015.2 |
| 20260505223229 | 61 | 189 | 10.4 | 13.9 | 0.00 | 0.00 | 0.00 | 76 | 1015.1 |
| 20260505222725 | 62 | 197 | 9.6 | 13.0 | 0.00 | 0.00 | 0.00 | 74 | 1015.1 |
| 20260505222221 | 61 | 241 | 12.2 | 14.8 | 0.00 | 0.00 | 0.00 | 75 | 1015.1 |
| 20260505221719 | 62 | 209 | 10.4 | 13.9 | 0.00 | 0.00 | 0.00 | 75 | 1014.9 |
| 20260505221215 | 62 | 199 | 9.6 | 15.6 | 0.00 | 0.00 | 0.00 | 74 | 1015.2 |
| 20260505220712 | 62 | 207 | 6.1 | 14.8 | 0.00 | 0.00 | 0.00 | 72 | 1015.1 |
| 20260505220210 | 62 | 220 | 11.3 | 13.9 | 0.00 | 0.00 | 0.00 | 74 | 1015.3 |
| 20260505215708 | 63 | 189 | 9.6 | 13.9 | 0.00 | 0.00 | 0.00 | 73 | 1015.1 |
| 20260505215205 | 63 | 203 | 10.4 | 14.8 | 0.00 | 0.00 | 0.00 | 73 | 1015.1 |
| 20260505214703 | 62 | 184 | 7.0 | 13.9 | 0.00 | 0.00 | 0.00 | 72 | 1015.0 |
| 20260505214200 | 62 | 196 | 11.3 | 13.9 | 0.00 | 0.00 | 0.00 | 72 | 1015.2 |
| 20260505213658 | 63 | 197 | 7.8 | 13.0 | 0.00 | 0.00 | 0.00 | 72 | 1015.2 |
| 20260505213154 | 62 | 209 | 10.4 | 15.6 | 0.00 | 0.00 | 0.00 | 72 | 1015.1 |
| 20260505212650 | 62 | 220 | 10.4 | 15.6 | 0.00 | 0.00 | 0.00 | 72 | 1015.1 |
| 20260505212148 | 61 | 195 | 7.8 | 14.8 | 0.00 | 0.00 | 0.00 | 73 | 1015.1 |
| 20260505211645 | 62 | 206 | 10.4 | 15.6 | 0.00 | 0.00 | 0.00 | 71 | 1014.9 |
| 20260505211142 | 63 | 230 | 12.2 | 14.8 | 0.00 | 0.00 | 0.00 | 71 | 1015.1 |
| 20260505210639 | 62 | 226 | 11.3 | 15.6 | 0.00 | 0.00 | 0.00 | 71 | 1015.1 |
| 20260505210135 | 63 | 181 | 7.8 | 13.0 | 0.00 | 0.00 | 0.00 | 74 | 1015.3 |
| 20260505205633 | 61 | 214 | 9.6 | 13.9 | 0.00 | 0.00 | 0.00 | 73 | 1015.1 |
| 20260505205131 | 61 | 205 | 12.2 | 13.9 | 0.00 | 0.00 | 0.00 | 73 | 1015.0 |
| 20260505204627 | 61 | 188 | 9.6 | 11.3 | 0.00 | 0.00 | 0.00 | 74 | 1015.1 |
| 20260505204126 | 60 | 221 | 9.6 | 13.0 | 0.00 | 0.00 | 0.00 | 73 | 1015.1 |
| 20260505203622 | 62 | 225 | 8.7 | 15.6 | 0.00 | 0.00 | 0.00 | 72 | 1015.3 |
| 20260505203119 | 62 | 205 | 8.7 | 13.0 | 0.00 | 0.00 | 0.00 | 73 | 1015.1 |
| 20260505202614 | 62 | 190 | 11.3 | 13.0 | 0.00 | 0.00 | 0.00 | 73 | 1015.1 |
| 20260505202111 | 62 | 191 | 9.6 | 13.0 | 0.00 | 0.00 | 0.00 | 72 | 1015.3 |
| 20260505201607 | 62 | 190 | 8.7 | 13.9 | 0.00 | 0.00 | 0.00 | 74 | 1015.2 |
| 20260505201105 | 63 | 195 | 10.4 | 13.0 | 0.00 | 0.00 | 0.00 | 73 | 1015.1 |
| 20260505200603 | 62 | 225 | 12.2 | 13.9 | 0.00 | 0.00 | 0.00 | 71 | 1015.2 |
| 20260505200100 | 63 | 222 | 12.2 | 13.0 | 0.00 | 0.00 | 0.00 | 70 | 1015.4 |
| 20260505195556 | 61 | 188 | 9.6 | 12.2 | 0.00 | 0.00 | 0.00 | 74 | 1015.4 |
| 20260505195054 | 61 | 218 | 5.2 | 12.2 | 0.00 | 0.00 | 0.00 | 73 | 1015.4 |
| 20260505194550 | 62 | 200 | 9.6 | 12.2 | 0.00 | 0.00 | 0.00 | 73 | 1015.1 |
| 20260505194046 | 63 | 209 | 11.3 | 12.2 | 0.00 | 0.00 | 0.00 | 72 | 1015.4 |
| 20260505193543 | 62 | 219 | 9.6 | 12.2 | 0.00 | 0.00 | 0.00 | 72 | 1015.3 |
| 20260505193040 | 62 | 224 | 11.3 | 12.2 | 0.00 | 0.00 | 0.00 | 72 | 1015.4 |
| 20260505192539 | 61 | 194 | 9.6 | 11.3 | 0.00 | 0.00 | 0.00 | 76 | 1015.4 |
| 20260505192036 | 59 | 197 | 9.6 | 15.6 | 0.00 | 0.00 | 0.00 | 77 | 1015.4 |
| 20260505191534 | 59 | 182 | 7.8 | 13.0 | 0.00 | 0.00 | 0.00 | 77 | 1015.4 |
| 20260505191032 | 59 | 173 | 9.6 | 13.9 | 0.00 | 0.00 | 0.00 | 78 | 1015.3 |
| 20260505190526 | 59 | 215 | 11.3 | 13.0 | 0.00 | 0.00 | 0.00 | 78 | 1015.6 |
| 20260505190023 | 59 | 197 | 8.7 | 13.0 | 0.00 | 0.00 | 0.00 | 78 | 1015.3 |
| 20260505185520 | 58 | 201 | 7.0 | 14.8 | 0.00 | 0.00 | 0.00 | 78 | 1015.3 |
| 20260505185016 | 58 | 191 | 7.8 | 13.0 | 0.00 | 0.00 | 0.00 | 79 | 1015.5 |
| 20260505184513 | 59 | 207 | 10.4 | 13.0 | 0.00 | 0.00 | 0.00 | 79 | 1015.5 |
| 20260505184009 | 59 | 183 | 9.6 | 13.0 | 0.00 | 0.00 | 0.00 | 79 | 1015.3 |
| 20260505183506 | 58 | 195 | 11.3 | 13.0 | 0.00 | 0.00 | 0.00 | 80 | 1015.3 |
| 20260505183003 | 58 | 205 | 11.3 | 12.2 | 0.00 | 0.00 | 0.00 | 79 | 1015.3 |
| 20260505182500 | 58 | 193 | 8.7 | 13.0 | 0.00 | 0.00 | 0.00 | 80 | 1015.3 |
| 20260505181956 | 58 | 199 | 7.8 | 11.3 | 0.00 | 0.00 | 0.00 | 80 | 1015.2 |
| 20260505181453 | 58 | 200 | 9.6 | 12.2 | 0.00 | 0.00 | 0.00 | 79 | 1015.3 |
| 20260505180950 | 59 | 188 | 9.6 | 10.4 | 0.00 | 0.00 | 0.00 | 80 | 1015.2 |
| 20260505180446 | 57 | 194 | 11.3 | 12.2 | 0.00 | 0.00 | 0.00 | 81 | 1015.2 |
| 20260505175943 | 58 | 198 | 10.4 | 13.0 | 0.00 | 0.00 | 0.00 | 80 | 1015.3 |
| 20260505175439 | 57 | 185 | 11.3 | 13.0 | 0.00 | 0.00 | 0.00 | 81 | 1015.3 |
| 20260505174936 | 57 | 191 | 11.3 | 12.2 | 0.00 | 0.00 | 0.00 | 82 | 1015.2 |
| 20260505174434 | 57 | 199 | 10.4 | 13.0 | 0.00 | 0.00 | 0.00 | 81 | 1015.3 |
| 20260505173929 | 57 | 181 | 10.4 | 13.0 | 0.00 | 0.00 | 0.00 | 81 | 1015.2 |
| 20260505173426 | 58 | 188 | 12.2 | 12.2 | 0.00 | 0.00 | 0.00 | 82 | 1015.1 |
| 20260505172923 | 58 | 189 | 11.3 | 12.2 | 0.00 | 0.00 | 0.00 | 81 | 1015.1 |
| 20260505172422 | 58 | 185 | 11.3 | 13.0 | 0.00 | 0.00 | 0.00 | 83 | 1015.1 |
| 20260505171920 | 59 | 186 | 10.4 | 11.3 | 0.00 | 0.00 | 0.00 | 80 | 1015.2 |
| 20260505171418 | 58 | 180 | 10.4 | 10.4 | 0.00 | 0.00 | 0.00 | 78 | 1015.1 |
| 20260505170914 | 58 | 187 | 9.6 | 11.3 | 0.00 | 0.00 | 0.00 | 79 | 1015.0 |
| 20260505170411 | 58 | 181 | 7.0 | 10.4 | 0.00 | 0.00 | 0.00 | 79 | 1015.2 |
| 20260505165906 | 57 | 187 | 9.6 | 11.3 | 0.00 | 0.00 | 0.00 | 80 | 1015.1 |
| 20260505165403 | 57 | 180 | 9.6 | 10.4 | 0.00 | 0.00 | 0.00 | 83 | 1014.9 |
| 20260505164858 | 57 | 189 | 9.6 | 11.3 | 0.00 | 0.00 | 0.00 | 84 | 1015.1 |
| 20260505164355 | 57 | 187 | 9.6 | 11.3 | 0.00 | 0.00 | 0.00 | 81 | 1015.2 |
| 20260505163853 | 56 | 184 | 8.7 | 10.4 | 0.00 | 0.00 | 0.00 | 83 | 1015.1 |
| 20260505163352 | 56 | 180 | 9.6 | 10.4 | 0.00 | 0.00 | 0.00 | 84 | 1015.1 |
| 20260505162850 | 56 | 189 | 10.4 | 11.3 | 0.00 | 0.00 | 0.00 | 84 | 1014.9 |
| 20260505162346 | 56 | 180 | 10.4 | 11.3 | 0.00 | 0.00 | 0.00 | 86 | 1014.8 |
| 20260505161843 | 56 | 184 | 10.4 | 12.2 | 0.00 | 0.00 | 0.00 | 86 | 1015.1 |
| 20260505161340 | 55 | 189 | 9.6 | 11.3 | 0.00 | 0.00 | 0.00 | 86 | 1014.9 |
| 20260505160837 | 55 | 194 | 8.7 | 9.6 | 0.00 | 0.00 | 0.00 | 88 | 1015.1 |
| 20260505160335 | 55 | 192 | 8.7 | 9.6 | 0.00 | 0.00 | 0.00 | 91 | 1015.0 |
| 20260505153314 | 54 | 186 | 7.0 | 9.6 | 0.00 | 0.00 | 0.00 | 95 | 1015.1 |
| 20260505152811 | 54 | 181 | 7.8 | 8.7 | 0.00 | 0.00 | 0.00 | 95 | 1014.8 |
| 20260505152308 | 54 | 180 | 8.7 | 9.6 | 0.00 | 0.00 | 0.00 | 95 | 1015.0 |
| 20260505151802 | 54 | 177 | 8.7 | 8.7 | 0.00 | 0.00 | 0.00 | 96 | 1014.7 |
| 20260505151259 | 54 | 181 | 7.8 | 8.7 | 0.00 | 0.00 | 0.00 | 96 | 1014.9 |
| 20260505150756 | 53 | 180 | 7.8 | 9.6 | 0.00 | 0.00 | 0.00 | 96 | 1014.8 |
| 20260505150253 | 53 | 181 | 7.8 | 8.7 | 0.00 | 0.00 | 0.00 | 97 | 1014.9 |
| 20260505140217 | 53 | 180 | 7.0 | 8.7 | 0.00 | 0.00 | 0.00 | 99 | 1014.7 |
| 20260505130141 | 52 | 184 | 7.8 | 9.6 | 0.00 | 0.00 | 0.00 | 99 | 1014.6 |
| 20260505124631 | 52 | 184 | 7.8 | 8.7 | 0.00 | 0.00 | 0.00 | 99 | 1014.4 |
| 20260505124128 | 52 | 183 | 7.8 | 9.6 | 0.00 | 0.00 | 0.00 | 99 | 1014.3 |
| 20260505123623 | 52 | 183 | 7.8 | 8.7 | 0.00 | 0.00 | 0.00 | 99 | 1014.4 |
| 20260505123120 | 52 | 187 | 7.0 | 9.6 | 0.00 | 0.00 | 0.00 | 99 | 1014.2 |
| 20260505122617 | 52 | 183 | 7.8 | 9.6 | 0.00 | 0.00 | 0.00 | 99 | 1014.3 |
| 20260505122115 | 52 | 178 | 7.0 | 7.8 | 0.00 | 0.00 | 0.00 | 99 | 1014.2 |
| 20260505121611 | 52 | 181 | 7.8 | 7.8 | 0.00 | 0.00 | 0.00 | 99 | 1014.2 |
| 20260505121108 | 52 | 182 | 7.8 | 8.7 | 0.00 | 0.00 | 0.00 | 98 | 1014.2 |
| 20260505120604 | 53 | 184 | 7.8 | 8.7 | 0.00 | 0.00 | 0.00 | 99 | 1014.1 |
| 20260505120100 | 52 | 183 | 7.0 | 7.8 | 0.00 | 0.00 | 0.00 | 99 | 1014.2 |
| 20260505115554 | 52 | 183 | 7.0 | 8.7 | 0.00 | 0.00 | 0.00 | 98 | 1013.9 |
| 20260505115052 | 52 | 185 | 7.8 | 9.6 | 0.00 | 0.00 | 0.00 | 98 | 1014.2 |
| 20260505114549 | 53 | 183 | 7.0 | 8.7 | 0.00 | 0.00 | 0.00 | 98 | 1013.9 |
| 20260505114045 | 52 | 183 | 7.0 | 8.7 | 0.00 | 0.00 | 0.00 | 98 | 1014.0 |
| 20260505113541 | 53 | 182 | 7.8 | 9.6 | 0.00 | 0.00 | 0.00 | 98 | 1013.9 |
| 20260505113038 | 53 | 180 | 7.0 | 7.8 | 0.00 | 0.00 | 0.00 | 98 | 1013.8 |
| 20260505112534 | 52 | 184 | 7.8 | 7.8 | 0.00 | 0.00 | 0.00 | 98 | 1014.1 |
| 20260505112032 | 52 | 186 | 7.8 | 8.7 | 0.00 | 0.00 | 0.00 | 98 | 1014.0 |
| 20260505111526 | 52 | 185 | 7.0 | 8.7 | 0.00 | 0.00 | 0.00 | 98 | 1013.8 |
| 20260505111023 | 52 | 188 | 7.0 | 8.7 | 0.00 | 0.00 | 0.00 | 98 | 1014.0 |
| 20260505110519 | 52 | 184 | 7.8 | 8.7 | 0.00 | 0.00 | 0.00 | 98 | 1014.1 |
| 20260505101952 | 53 | 182 | 7.0 | 7.8 | 0.00 | 0.00 | 0.00 | 98 | 1014.1 |
| 20260505101450 | 53 | 183 | 7.8 | 8.7 | 0.00 | 0.00 | 0.00 | 98 | 1013.9 |
| 20260505100946 | 53 | 185 | 7.0 | 8.7 | 0.00 | 0.00 | 0.00 | 98 | 1013.9 |
| 20260505100443 | 53 | 180 | 7.0 | 7.8 | 0.00 | 0.00 | 0.00 | 98 | 1014.0 |
| 20260505095939 | 53 | 185 | 7.0 | 8.7 | 0.00 | 0.00 | 0.00 | 98 | 1014.1 |
| 20260505095436 | 53 | 185 | 7.8 | 8.7 | 0.00 | 0.00 | 0.00 | 98 | 1014.1 |
| 20260505094932 | 53 | 183 | 7.0 | 7.8 | 0.00 | 0.00 | 0.00 | 98 | 1014.0 |
| 20260505094429 | 53 | 182 | 7.8 | 8.7 | 0.00 | 0.00 | 0.00 | 98 | 1014.0 |
| 20260505093925 | 53 | 180 | 6.1 | 7.8 | 0.00 | 0.00 | 0.00 | 98 | 1014.1 |
| 20260505093422 | 53 | 184 | 7.8 | 8.7 | 0.00 | 0.00 | 0.00 | 98 | 1014.3 |
| 20260505092919 | 53 | 189 | 7.8 | 8.7 | 0.00 | 0.00 | 0.00 | 98 | 1014.4 |
| 20260505092417 | 53 | 189 | 6.1 | 8.7 | 0.00 | 0.00 | 0.00 | 97 | 1014.2 |
| 20260505091915 | 53 | 191 | 7.0 | 8.7 | 0.00 | 0.00 | 0.00 | 97 | 1014.3 |
| 20260505091412 | 53 | 185 | 7.8 | 8.7 | 0.00 | 0.00 | 0.00 | 97 | 1014.2 |
| 20260505090910 | 53 | 183 | 7.8 | 9.6 | 0.00 | 0.00 | 0.00 | 97 | 1014.3 |
| 20260505090408 | 53 | 186 | 7.8 | 8.7 | 0.00 | 0.00 | 0.00 | 97 | 1014.2 |
| 20260505085905 | 53 | 188 | 6.1 | 7.8 | 0.00 | 0.00 | 0.00 | 97 | 1014.4 |
| 20260505085403 | 53 | 191 | 7.8 | 8.7 | 0.00 | 0.00 | 0.00 | 97 | 1014.1 |
| 20260505084901 | 53 | 183 | 7.8 | 8.7 | 0.00 | 0.00 | 0.00 | 97 | 1014.4 |
| 20260505084359 | 53 | 180 | 7.8 | 8.7 | 0.00 | 0.00 | 0.00 | 97 | 1014.6 |
| 20260505083856 | 53 | 183 | 7.8 | 8.7 | 0.00 | 0.00 | 0.00 | 97 | 1014.6 |
| 20260505083354 | 53 | 188 | 7.8 | 8.7 | 0.00 | 0.00 | 0.00 | 97 | 1014.6 |
| 20260505082849 | 53 | 186 | 7.8 | 9.6 | 0.00 | 0.00 | 0.00 | 97 | 1014.6 |
| 20260505082346 | 53 | 181 | 7.8 | 8.7 | 0.00 | 0.00 | 0.00 | 97 | 1014.6 |
| 20260505081843 | 53 | 187 | 7.8 | 8.7 | 0.00 | 0.00 | 0.00 | 97 | 1014.5 |
| 20260505081339 | 53 | 188 | 7.8 | 9.6 | 0.00 | 0.00 | 0.00 | 97 | 1014.7 |
| 20260505080836 | 53 | 184 | 7.0 | 8.7 | 0.00 | 0.00 | 0.00 | 97 | 1014.7 |
| 20260505080332 | 53 | 180 | 7.8 | 8.7 | 0.00 | 0.00 | 0.00 | 97 | 1014.7 |
| 20260505075827 | 53 | 181 | 6.1 | 8.7 | 0.00 | 0.00 | 0.00 | 97 | 1014.8 |
| 20260505075325 | 53 | 185 | 7.0 | 10.4 | 0.00 | 0.00 | 0.00 | 97 | 1014.8 |
| 20260505074822 | 53 | 187 | 7.8 | 8.7 | 0.00 | 0.00 | 0.00 | 97 | 1014.6 |
| 20260505074319 | 53 | 183 | 8.7 | 10.4 | 0.00 | 0.00 | 0.00 | 97 | 1014.8 |
| 20260505073816 | 53 | 182 | 7.0 | 7.8 | 0.00 | 0.00 | 0.00 | 96 | 1014.5 |
| 20260505073314 | 53 | 182 | 7.0 | 8.7 | 0.00 | 0.00 | 0.00 | 97 | 1014.7 |
| 20260505072811 | 53 | 184 | 7.8 | 8.7 | 0.00 | 0.00 | 0.00 | 96 | 1014.6 |
| 20260505072307 | 53 | 184 | 7.0 | 8.7 | 0.00 | 0.00 | 0.00 | 96 | 1014.5 |
| 20260505071803 | 53 | 182 | 7.0 | 8.7 | 0.00 | 0.00 | 0.00 | 97 | 1014.7 |
| 20260505071300 | 53 | 181 | 7.0 | 7.8 | 0.00 | 0.00 | 0.00 | 97 | 1014.8 |
| 20260505070758 | 53 | 185 | 7.0 | 7.8 | 0.00 | 0.00 | 0.00 | 96 | 1014.7 |
| 20260505070254 | 53 | 183 | 7.8 | 8.7 | 0.00 | 0.00 | 0.00 | 96 | 1014.5 |
| 20260505065749 | 53 | 191 | 7.0 | 9.6 | 0.00 | 0.03 | 0.03 | 96 | 1014.7 |
| 20260505065246 | 53 | 194 | 7.0 | 9.6 | 0.00 | 0.03 | 0.03 | 96 | 1014.6 |
| 20260505064743 | 53 | 190 | 7.8 | 9.6 | 0.00 | 0.03 | 0.03 | 96 | 1014.9 |
| 20260505064241 | 53 | 185 | 7.8 | 9.6 | 0.00 | 0.03 | 0.03 | 96 | 1014.6 |
| 20260505063738 | 53 | 188 | 6.1 | 8.7 | 0.00 | 0.03 | 0.03 | 96 | 1014.7 |
| 20260505063234 | 53 | 184 | 8.7 | 8.7 | 0.00 | 0.03 | 0.03 | 96 | 1014.4 |
| 20260505062731 | 53 | 184 | 7.8 | 9.6 | 0.00 | 0.03 | 0.03 | 96 | 1014.6 |
| 20260505062229 | 53 | 188 | 7.0 | 7.8 | 0.00 | 0.03 | 0.03 | 96 | 1014.6 |
| 20260505061725 | 53 | 184 | 6.1 | 9.6 | 0.00 | 0.03 | 0.03 | 96 | 1014.7 |
| 20260505061223 | 53 | 184 | 7.8 | 9.6 | 0.00 | 0.03 | 0.03 | 96 | 1014.6 |
| 20260505060720 | 54 | 184 | 7.8 | 8.7 | 0.00 | 0.03 | 0.03 | 96 | 1014.5 |
| 20260505060217 | 54 | 179 | 7.0 | 9.6 | 0.00 | 0.03 | 0.03 | 96 | 1014.5 |
| 20260505055713 | 54 | 183 | 7.0 | 9.6 | 0.00 | 0.03 | 0.03 | 96 | 1014.5 |
| 20260505055209 | 54 | 182 | 7.0 | 9.6 | 0.00 | 0.03 | 0.03 | 95 | 1014.7 |
| 20260505054707 | 54 | 183 | 7.8 | 8.7 | 0.00 | 0.03 | 0.03 | 95 | 1014.6 |
| 20260505054205 | 54 | 180 | 7.0 | 8.7 | 0.00 | 0.03 | 0.03 | 95 | 1014.5 |
| 20260505053702 | 54 | 180 | 7.0 | 8.7 | 0.00 | 0.03 | 0.03 | 95 | 1014.8 |
| 20260505053158 | 54 | 182 | 7.0 | 7.8 | 0.00 | 0.03 | 0.03 | 95 | 1014.6 |
| 20260505052655 | 54 | 182 | 7.0 | 8.7 | 0.00 | 0.03 | 0.03 | 95 | 1014.6 |
| 20260505052153 | 54 | 184 | 7.0 | 8.7 | 0.00 | 0.03 | 0.03 | 95 | 1014.9 |
| 20260505051650 | 54 | 186 | 7.0 | 7.8 | 0.00 | 0.03 | 0.03 | 95 | 1014.9 |
| 20260505051148 | 54 | 189 | 7.8 | 8.7 | 0.00 | 0.03 | 0.03 | 95 | 1014.5 |
| 20260505050645 | 54 | 185 | 7.8 | 8.7 | 0.00 | 0.03 | 0.03 | 95 | 1014.9 |
| 20260505050143 | 54 | 174 | 7.0 | 8.7 | 0.00 | 0.03 | 0.03 | 95 | 1014.9 |
| 20260505041613 | 55 | 183 | 7.0 | 8.7 | 0.00 | 0.03 | 0.03 | 95 | 1014.5 |
| 20260505041110 | 55 | 184 | 7.0 | 8.7 | 0.00 | 0.03 | 0.03 | 95 | 1014.6 |
| 20260505040607 | 55 | 186 | 7.8 | 8.7 | 0.00 | 0.03 | 0.03 | 95 | 1014.4 |
| 20260505040105 | 55 | 186 | 7.8 | 9.6 | 0.00 | 0.03 | 0.03 | 94 | 1014.3 |
| 20260505035601 | 55 | 189 | 7.8 | 8.7 | 0.00 | 0.03 | 0.03 | 94 | 1014.1 |
| 20260505035057 | 55 | 184 | 7.0 | 7.8 | 0.00 | 0.03 | 0.03 | 94 | 1014.1 |
| 20260505034554 | 55 | 187 | 7.0 | 7.8 | 0.00 | 0.03 | 0.03 | 94 | 1014.1 |
| 20260505034050 | 55 | 188 | 7.0 | 8.7 | 0.00 | 0.03 | 0.03 | 94 | 1014.0 |
| 20260505033548 | 55 | 185 | 7.0 | 7.8 | 0.00 | 0.03 | 0.03 | 94 | 1013.8 |
| 20260505033046 | 55 | 181 | 7.8 | 7.8 | 0.00 | 0.03 | 0.03 | 94 | 1013.8 |
| 20260505032544 | 55 | 188 | 7.0 | 7.8 | 0.00 | 0.03 | 0.03 | 94 | 1013.5 |
| 20260505032040 | 55 | 182 | 7.0 | 8.7 | 0.00 | 0.03 | 0.03 | 94 | 1013.6 |
| 20260505031537 | 55 | 182 | 6.1 | 7.8 | 0.00 | 0.03 | 0.03 | 94 | 1013.7 |
| 20260505031033 | 55 | 197 | 8.7 | 8.7 | 0.00 | 0.03 | 0.03 | 93 | 1013.5 |
| 20260505030530 | 55 | 183 | 7.0 | 9.6 | 0.00 | 0.03 | 0.03 | 93 | 1013.7 |
| 20260505030026 | 55 | 188 | 7.8 | 8.7 | 0.00 | 0.03 | 0.03 | 93 | 1013.6 |
| 20260505025522 | 55 | 169 | 6.1 | 9.6 | 0.00 | 0.03 | 0.03 | 92 | 1013.7 |
| 20260505025022 | 56 | 183 | 7.8 | 9.6 | 0.00 | 0.03 | 0.03 | 92 | 1013.6 |
| 20260505024518 | 56 | 188 | 7.8 | 8.7 | 0.00 | 0.03 | 0.03 | 91 | 1013.4 |
| 20260505024015 | 56 | 187 | 7.0 | 8.7 | 0.00 | 0.03 | 0.03 | 88 | 1013.6 |
| 20260505023512 | 56 | 186 | 7.0 | 8.7 | 0.00 | 0.03 | 0.03 | 87 | 1013.5 |
| 20260505023010 | 56 | 184 | 7.8 | 8.7 | 0.00 | 0.03 | 0.03 | 87 | 1013.5 |
| 20260505022507 | 56 | 185 | 7.8 | 9.6 | 0.00 | 0.03 | 0.03 | 87 | 1013.5 |
| 20260505022004 | 56 | 181 | 7.8 | 9.6 | 0.00 | 0.03 | 0.03 | 87 | 1013.3 |
| 20260505021501 | 56 | 195 | 8.7 | 9.6 | 0.00 | 0.03 | 0.03 | 87 | 1013.3 |
| 20260505020956 | 56 | 197 | 8.7 | 9.6 | 0.00 | 0.03 | 0.03 | 86 | 1013.5 |
| 20260505020452 | 56 | 189 | 9.6 | 9.6 | 0.00 | 0.03 | 0.03 | 86 | 1013.5 |
| 20260505015948 | 56 | 187 | 8.7 | 9.6 | 0.00 | 0.03 | 0.03 | 87 | 1013.7 |
| 20260505015446 | 57 | 198 | 9.6 | 10.4 | 0.00 | 0.03 | 0.03 | 87 | 1013.5 |
| 20260505014943 | 57 | 190 | 8.7 | 9.6 | 0.00 | 0.03 | 0.03 | 86 | 1013.9 |
| 20260505014440 | 57 | 183 | 8.7 | 10.4 | 0.00 | 0.03 | 0.03 | 86 | 1013.8 |